Other Public Products
Issued by NWS Grand Forks, ND

Home | Current Version | Previous Version | Graphics & Text | Print | Product List | Glossary On
Versions: 1 2 3 4 5 6 7 8 9 10 11 12 13 14 15 16 17 18 19 20 21 22 23 24 25 26 27 28 29 30 31 32 33 34 35 36 37 38 39 40 41 42 43 44 45 46 47 48 49 50
000
FPUS83 KFGF 012331
OPUFGF
PRAIRIE TO PINES WEATHER ROUNDUP
NATIONAL WEATHER SERVICE EASTERN NORTH DAKOTA/GRAND FORKS ND
500 PM CST SUN MAR 01 2015

 **SATELLITE DATA USED TO AUGMENT SKY COVER AT AUTOMATED STATIONS**
 *****  WEATHER ACROSS EASTERN NORTH DAKOTA  *****

CITY           SKY/WX    TMP DP  RH WIND       PRES   REMARKS
GRAND FORKS    MOSUNNY   21   9  59 NW12      30.27R WCI   9
GRAND FORKS AF SUNNY     20   8  58 NW13      30.27R WCI   7
GRAND CITY NWS   N/A     19 N/A N/A N3          N/A
BUXTON         NOT AVBL
DEVILS LAKE    SUNNY     18   9  68 W15       30.26R WCI   3
FARGO          PTSUNNY   21  11  65 NW15      30.28R WCI   8
WAHPETON ARPT  MOCLDY    23  12  63 NW15      30.30R WCI  10
$$

 *****  WEATHER ACROSS CENTRAL AND WESTERN NORTH DAKOTA  *****

CITY           SKY/WX    TMP DP  RH WIND       PRES   REMARKS
JAMESTOWN      SUNNY     20   7  57 NW16G24   30.28R WCI   6
BISMARCK       PTSUNNY   23  10  57 N12G23    30.33R WCI  12
MINOT          SUNNY     21   8  57 W13       30.28R WCI   9
MINOT AFB      SUNNY     20  12  73 W13       30.27S WCI   7
GARRISON         N/A     21  11  65 NW14      30.29R WCI   8
WILLISTON      SUNNY     26   7  44 NW9       30.29S WCI  17
DICKINSON      CLOUDY    23  11  60 NW7       30.26R WCI  15
HETTINGER      CLOUDY    24  11  57 NW14G24   30.28R WCI  12
$$

 *****  OTHER OBSERVATIONS NORTHEAST NORTH DAKOTA  *****

CITY           SKY/WX    TMP DP  RH WIND       PRES   REMARKS
WALHALLA         N/A     18   9  68 W13G20    30.25S WCI   4
LANGDON        NOT AVBL
CAVALIER       FAIR      18   7  62 W12       30.26R WCI   5
GRAFTON        NOT AVBL
CANDO          MOCLDY    16   9  73 W15       30.25S WCI   1
FORT TOTTEN      N/A     20   8  59 NW7       29.95  WCI  11
ROLLA          FAIR      18   3  53 W17G25    30.21F WCI   2
RUGBY          FAIR      16   9  73 W12       30.27S WCI   3
 ***** THE ABOVE OBSERVATIONS ARE NON NWS ARE NOT QUALITY
        CONTROLLED AND MAY MIS-REPORT RAIN FOR SNOW...
$$

 *****  OTHER OBSERVATIONS SOUTHEAST NORTH DAKOTA *****

CITY           SKY/WX    TMP DP  RH WIND       PRES   REMARKS
COOPERSTOWN    NOT AVBL
VALLEY CITY    FAIR      18   9  68 NW15      30.28R WCI   3
OAKES            N/A     21  14  73 NW18      30.30S WCI   6
GWINNER        MOCLDY    25  14  63 NW15      30.31S WCI  12
SHEYENNE NWR     N/A     24  11  56 NW10      29.95S WCI  14
BUFFALO        NOT AVBL
WYNDMERE         N/A     21  12  68 NW15        N/A  WCI   8
 ***** THE ABOVE OBSERVATIONS ARE NON NWS ARE NOT QUALITY
       CONTROLLED AND MAY MIS-REPORT RAIN FOR SNOW...
$$

  *****  WEATHER ACROSS NORTHERN MINNESOTA  *****

CITY           SKY/WX    TMP DP  RH WIND       PRES   REMARKS
FLAG ISLAND    CLEAR     16   3  57 NW15G24   30.14R WCI   1
WARROAD        CLEAR     18   3  53 NW8       30.17R WCI   7
ROSEAU         FAIR      18   7  62 W9        30.19R WCI   6
HALLOCK        SUNNY     19  10  68 W10       30.24S WCI   8
THF RVR FALLS  SUNNY     16   9  73 W10       30.23R WCI   3
HALSTAD          N/A     20  10  67 NW10        N/A  WCI   8
FOSSTON        FLURRIES  14   9  79 W12       30.24R WCI   0
BAUDETTE       CLOUDY    19   8  62 W14       30.12R WCI   6
WASKISH        PTCLDY    12   9  85 SW12      30.16R WCI  -2
CROOKSTON      SUNNY     18  12  79 NW9       30.28R WCI   6
$$
  *****  WEATHER ACROSS CENTRAL AND WEST MINNESOTA  *****

CITY           SKY/WX    TMP DP  RH WIND       PRES   REMARKS
BEMIDJI        FLURRIES  15   9  76 W14       30.18R WCI   0
PARK RAPIDS    CLOUDY    18  10  71 W17       30.18R WCI   3
WADENA         FLURRIES  18  10  73 W9        30.20S WCI   6
DETROIT LAKES  LGT SNOW  19  14  79 NW14      30.24R WCI   6
MOORHEAD       PTSUNNY   19  12  73 NW15      30.29R WCI   5
FERGUS FALLS   CLOUDY    21  10  63 NW20      30.29R WCI   6
ELBOW LAKE     CLOUDY    21  13  73 NW21      30.26R WCI   5
MORRIS MN      PTSUNNY   25  14  63 NW23      30.26R WCI  10
STAPLES        FLURRIES  18  10  73 W12G18    30.20R WCI   5
WHEATON        NOT AVBL
$$
  *****  WEATHER ELSEWHERE ACROSS MINNESOTA  *****

CITY           SKY/WX    TMP DP  RH WIND       PRES   REMARKS
DULUTH         MOCLDY    23   7  50 W15G25    30.08R WCI  10
INTRNTL FALLS  CLOUDY    18   7  62 NW14G20   30.10R HAZE    WCI   4
ELY            PTCLDY    18   3  53 W10G17    30.05R WCI   6
CLOQUET        CLOUDY    23   7  50 W13       30.11R WCI  11
BRAINERD       FLURRIES  21  12  68 W12       30.18S WCI   9
HIBBING        CLOUDY    20   7  57 W9G18     30.09R WCI   9
ALEXANDRIA     FLURRIES  21  14  74 W18       30.22R WCI   6
SAINT CLOUD    CLOUDY    25  10  53 W16       30.21S WCI  12
MINNEAPOLIS    FAIR      27  10  49 W16G24    30.23F WCI  15
$$

  *****  WEATHER ACROSS SOUTH DAKOTA  *****

CITY           SKY/WX    TMP DP  RH WIND       PRES   REMARKS
SIOUX FALLS    MOSUNNY   30  16  56 NW17G26   30.30R WCI  18
BROOKINGS      NOT AVBL
WATERTOWN      MOSUNNY   23  14  68 NW17G24   30.27S WCI   9
HURON          MOSUNNY   29  16  58 NW18G24   30.33R WCI  16
SISSETON         N/A     25  12  58 NW23G32   30.28  WCI  10
ABERDEEN       SUNNY     26  14  60 NW16      30.33R WCI  14
MITCHELL       SUNNY     33  12  41 N20G28    30.34R WCI  21
PIERRE         MOSUNNY   33   9  36 NW22      30.31R WCI  21
MOBRIDGE       CLOUDY    29  15  56 NW14      30.29R WCI  18
RAPID CITY     SUNNY     26  12  55 N23       30.25R WCI  11
$$

  *****  SOME WEATHER IN NEARBY STATES *****

CITY           SKY/WX    TMP DP  RH WIND       PRES   REMARKS
GLASGOW MT     PTSUNNY   28   7  41 SW6       30.25S WCI  22
GREAT FALLS MT SUNNY     34   9  35 S13G18    30.04F WCI  25
CHEYENNE WY    CLOUDY    23  13  65 SW8       30.17R WCI  14
SCOTTSBLUFF NE SUNNY     34  10  37 SW7       30.25S
OMAHA NE       MOSUNNY   39  16  39 NW12      30.35S
DES MOINES IA  MOSUNNY   33  17  51 NW14      30.35S WCI  23
DAVENPORT IA   CLEAR     24  15  68 W13       30.32F WCI  12
CHICAGO IL     MOCLDY    23  14  68 W14       30.26S WCI  11
EAU CLAIRE WI  PTCLDY    24   6  46 W15       30.21R WCI  11
LA CROSSE WI   CLEAR     24   7  48 W14       30.27R WCI  12
$$

  *****  SOME NATIONAL WEATHER *****

CITY           SKY/WX    TMP DP  RH WIND       PRES   REMARKS
LA GUARDIA NY  LGT SNOW  27  23  86 S5        30.33F FOG     WCI  21
RALEIGH NC     CLOUDY    34  31  88 SE3       30.37F FOG
ATLANTA GA     CLOUDY    46  42  86 E5        30.39S FOG
NEW ORLEANS LA CLOUDY    62  58  86 E8        30.25R FOG
OKLAHOMA CITY  CLOUDY    34  26  72 N8        30.35S
ALBUQUERQUE NM MOSUNNY   62  34  35 S9        30.02F
SALT LAKE CITY PTSUNNY   46  27  47 VRB5      30.01F
LOS ANGELES CA PTSUNNY   61  46  57 S10G20    29.89R
BOISE ID       SUNNY     45  19  35 NW3       30.09F
SEATTLE WA     CLOUDY    51  26  37 SW7       30.07F
$$

*** WEATHER ACROSS MANITOBA...SASKATCHEWAN AND ONTARIO ***
                ***ONTARIO***

CITY           SKY/WX    TMP DP  RH WIND       PRES   REMARKS
GERALDTON      MOCLDY    19   5  53 W9        29.87S WCI   9
THUNDER BAY    PTCLDY    23   3  42 W17       29.99R WCI   9
SIOUX LOOKOUT  MOCLDY    14   1  57 NW9       29.99  WCI   2
TORONTO        MOCLDY    25  18  74 W9        30.17F WCI  15
BIG TROUT LK   LGT SNOW   3  -2  78 NW14      29.91R WCI -15
PICKLE LAKE    PTCLDY    14  -4  44 W14G23    29.88R WCI  -1
DRYDEN         FLURRIES  16   3  57 W17G29    30.03R WCI   0
KENORA         MOCLDY    16   3  57 NW9G17    30.09R WCI   4
$$
                *** MANITOBA***

CITY           SKY/WX    TMP DP  RH WIND       PRES   REMARKS
BRANDON        MOSUNNY   16   9  73 W14       30.22R WCI   1
DAUPHIN        SUNNY     18   9  68 W15G22    30.20S WCI   3
ISLAND LAKE    PTCLDY     5  -8  56 NW16G23   30.03R WCI -14
PILOT MOUND      N/A     16   7  67 W8          N/A  WCI   5
THE PAS        MOSUNNY   16  -2  45 W14       30.15S WCI   1
THOMPSON       CLEAR      3 -15  43 NW12      30.08R WCI -13
WINNIPEG       MOSUNNY   18   9  68 W10       30.21R WCI   6
LYNN LAKE      CLEAR      5  -8  56 W12       30.04F WCI -11
CHURCHILL      CRYSTALS -15 -22  70 NW22G33   30.00R WCI -42
GILLAM         CLEAR     -6 -18  54 NW14      30.04R WCI -26
$$
                ***SASKATCHEWAN***

CITY           SKY/WX    TMP DP  RH WIND       PRES   REMARKS
ESTEVAN        MOSUNNY   18  10  73 W10       30.26F WCI   6
KINDERSLEY     SUNNY     23  16  74 S15       30.09  WCI  10
LLOYDMINSTER   SUNNY     18  12  79 S9        30.04F WCI   6
PRINCE ALBERT  MOSUNNY   18   7  62 S8        30.18S WCI   7
REGINA         SUNNY     14   9  79 W5        30.24F WCI   6



USA.gov is the U.S. government's official web portal to all federal, state and local government web resources and services.